Regional Weather Roundup
Issued by NWS

Home | Current Version | Previous Version | Text Only | Print | Product List | Glossary On
Versions: 1 2 3 4 5 6 7 8 9 10 11 12 13 14 15 16 17 18 19 20 21 22 23 24 25 26 27 28 29 30 31 32 33 34 35 36 37 38 39 40 41 42 43 44 45 46 47 48 49 50
000
ASUS44 KFWD 021715
RWRTX
NORTH TEXAS HOURLY WEATHER ROUNDUP
NATIONAL WEATHER SERVICE FORT WORTH TX
1100 AM CST MON MAR 02 2015

NOTE: "FAIR" INDICATES FEW OR NO CLOUDS BELOW 12,000 FEET WITH NO
SIGNIFICANT WEATHER AND/OR OBSTRUCTIONS TO VISIBILITY.

TXZ118-119-021800-
DALLAS/FORT WORTH METROPLEX

CITY           SKY/WX    TMP DP  RH WIND       PRES   REMARKS
DFW AIRPORT    DRIZZLE   35  34  96 N9        30.38F FOG     WCI  28
DALLAS LOVE    DRIZZLE   37  35  92 N9        30.38F FOG     WCI  30
FTW MEACHAM    CLOUDY    37  34  89 NE8       30.36F FOG     WCI  31
DAL-EXECUTIVE  FOG       36  35  96 N6        30.37S VSB 3/4 WCI  31
FTW-ALLIANCE   DRIZZLE   35  34  96 N8        30.38F FOG     WCI  29
FTW-SPINKS     CLOUDY    36  34  93 N7        30.38F FOG     WCI  30
ARLINGTON      CLOUDY    37  33  85 N8        30.38F FOG     WCI  31
GRAND PRAIRIE  DRIZZLE   36  36 100 N8        30.38F WCI  29
ADDISON        CLOUDY    37  34  87 NW6       30.40F FOG     WCI  33
MESQUITE       CLOUDY    36  36 100 N8        30.39S FOG     WCI  29
LANCASTER      CLOUDY    36  34  92 N7        30.40S FOG     WCI  31
$$

TXZ091>094-102>105-117-120-121-131>134-021800-
NORTH CENTRAL TEXAS

CITY           SKY/WX    TMP DP  RH WIND       PRES   REMARKS
SHRMAN/DENISON CLOUDY    36  36 100 N7        30.40S FOG     WCI  31
GAINESVILLE    CLOUDY    33  32  95 N5        30.41S FOG     WCI  29
BOWIE          CLOUDY    33  33  97 NE6       30.34F FOG     WCI  28
BRIDGEPORT     CLOUDY    34  34 100 NE5       30.38F FOG     WCI  30
DECATUR        CLOUDY    33  33  99 NE7       30.35F FOG     WCI  27
DENTON         CLOUDY    35  34  96 N8        30.38F FOG     WCI  29
MCKINNEY       CLOUDY    37  36  96 N6        30.39R FOG     WCI  32
GREENVILLE     CLOUDY    37  37 100 NE5       30.38  FOG     WCI  34
TERRELL        CLOUDY    40  37  89 N8        30.38F FOG     WCI  34
WAXAHACHIE     DRIZZLE   36  36 100 N8        30.39S WCI  29
CLEBURNE       CLOUDY    36  36 100 N12       30.37  FOG     WCI  27
GRANBURY       CLOUDY    37  34  91 N6        30.40  FOG     WCI  32
$$

TXZ083>090-098>101-113>116-127>130-139>142-154-155-021800-
WESTERN NORTH TEXAS

CITY           SKY/WX    TMP DP  RH WIND       PRES   REMARKS
WICHITA FALLS  CLOUDY    33  27  78 NW6       30.41R WCI  28
WF-KICKAPOO    CLOUDY    35  30  83 W5        30.42R WCI  31
VERNON         CLOUDY    33  23  65 CALM      30.40S
ABILENE        CLOUDY    31  29  92 N7        30.37F FOG     WCI  24
ABILENE-DYESS  CLOUDY    30  28  89 N6        30.37F VSB 1   WCI  24
BRECKENRIDGE   CLOUDY    33  32  96 N3        30.37F FOG
GRAHAM         CLOUDY    32  32 100 NW5       30.37F FOG     WCI  27
MINERAL WELLS  CLOUDY    34  33  96 N5        30.37R FOG     WCI  30
STEPHENVILLE   CLOUDY    34  33  95 NE6       30.38S WCI  29
COMANCHE       FOG       34  34 100 N8        30.37S VSB 1   WCI  27
BROWNWOOD      CLOUDY    34  32  93 N6        30.37S FOG     WCI  29
COLEMAN        CLOUDY    33  33 100 N7        30.36F FOG     WCI  27
BRADY          MIX PCPN  36  34  93 N7        30.32F FOG     WCI  30
$$

TXZ143>147-156>162-174-175-021800-
CENTRAL TEXAS

CITY           SKY/WX    TMP DP  RH WIND       PRES   REMARKS
WACO           CLOUDY    38  36  92 N10       30.37F FOG     WCI  31
WACO-MCGREGOR    N/A     37  34  87 N9        30.37F WCI  31
HILLSBORO      CLOUDY    37  36  94 N10       30.37  FOG     WCI  30
CORSICANA      CLOUDY    40  38  93 N9        30.38F FOG     WCI  34
MEXIA          CLOUDY    38  37  97 N7        30.35F FOG     WCI  33
HEARNE         CLOUDY    40  39  96 N9        30.38  FOG     WCI  34
CAMERON        CLOUDY    40  39  97 N13       30.36  FOG     WCI  32
TEMPLE         CLOUDY    37  34  87 N8        30.35F WCI  31
KILLEEN        CLOUDY    37  37 100 N10       30.34F FOG     WCI  30
KILLEEN-SKYLRK CLOUDY    37  34  87 N8        30.33F WCI  31
FORT HOOD      CLOUDY    37  37 100 N9        30.34F FOG     WCI  31
GATESVILLE     CLOUDY    37  37 100 N6        30.38  FOG     WCI  33
HAMILTON       FOG       36  36 100 N6        30.36R VSB 3/4 WCI  31
LAMPASAS       CLOUDY    38  37  97 N5        30.34  FOG     WCI  34
$$

TXZ095>097-106>112-122>126-135>138-148>153-164>167-021800-
EAST TEXAS

CITY           SKY/WX    TMP DP  RH WIND       PRES   REMARKS
PARIS          CLOUDY    39  37  93 E8        30.40S WCI  34
SULPHUR SPRNGS CLOUDY    41  41 100 E8        30.40F FOG     WCI  36
MOUNT PLEASANT CLOUDY    41  40  98 E14       30.40F WCI  33
GILMER         CLOUDY    39  39  97 NE7       30.38  FOG     WCI  34
MINEOLA        CLOUDY    43  43 100 CALM      30.38  FOG
TYLER          CLOUDY    43  40  89 NE8       30.35F FOG     WCI  38
LONGVIEW       CLOUDY    43  40  89 NE9       30.36S FOG     WCI  38
MARSHALL       CLOUDY    42  40  93 NE5       30.39S WCI  39
ATHENS         CLOUDY    39  39 100 NE7       30.35F FOG     WCI  34
PALESTINE      FOG       43  43 100 N5        30.36S VSB 1
JACKSONVILLE   FOG       43  43  99 NE7       30.35S VSB 1/4 WCI  39
HENDERSON      CLOUDY    42  42 100 NE6       30.36F WCI  38
NACOGDOCHES    CLOUDY    45  43  93 N5        30.35R
LUFKIN         CLOUDY    49  45  86 N8        30.33S FOG
$$

SUPPLEMENTAL OBSERVATIONS (CENTRAL)

CITY           SKY/WX    TMP DP  RH WIND       PRES   REMARKS
$$

SUPPLEMENTAL OBSERVATIONS (WEST)

CITY           SKY/WX    TMP DP  RH WIND       PRES   REMARKS
$$

SUPPLEMENTAL OBSERVATIONS (EAST)

CITY           SKY/WX    TMP DP  RH WIND       PRES   REMARKS
$$

SUPPLEMENTAL OBSERVATIONS ARE A COLLECTION OF AUTOMATED INSTRUMENTS
THAT ARE MAINTAINED BY A VARIETY OF FEDERAL AND STATE AGENCIES.
CERTAIN ELEMENTS...SUCH AS HUMIDITY VALUES AND SUSTAINED WIND
SPEEDS...MAY BE APPROXIMATED.



USA.gov is the U.S. government's official web portal to all federal, state and local government web resources and services.